This is the latest recevied weather packets stored in our database for station/object XQ6AK-15. If no packets are shown the sender has not sent any weather packets the latest 10 day(s).
| Time | Temp. | Humidity | Pressure | Rain* | Wind** | Luminosity | Snow |
|---|---|---|---|---|---|---|---|
| 1787771755 | 8.89° C | 99% | 998.8 hPa | 0 mm | - | 229 W/m² | - |
| 1787771454 | 8.33° C | 99% | 998.7 hPa | 0 mm | - | 244 W/m² | - |
| 1787771152 | 8.33° C | 99% | 998.6 hPa | 0 mm | - | 189 W/m² | - |
| 1787770849 | 8.33° C | 99% | 998.6 hPa | 1.27 mm | - | 73 W/m² | - |
| 1787770546 | 8.89° C | 99% | 998.7 hPa | 3.05 mm | - | 52 W/m² | - |
| 1787770241 | 8.89° C | 99% | 998.9 hPa | 7.87 mm | - | 9 W/m² | - |
| 1787769939 | 9.44° C | 99% | 998.9 hPa | 12.7 mm | - | 8 W/m² | - |
| 1787769634 | 10° C | 98% | 998.7 hPa | 10.16 mm | - | 3 W/m² | - |
| 1787769327 | 10.56° C | 95% | 998.8 hPa | 4.32 mm | - | 3 W/m² | - |
| 1787769022 | 10.56° C | 93% | 998 hPa | 1.78 mm | - | 5 W/m² | - |
| 1787768717 | 10.56° C | 92% | 997.9 hPa | 1.78 mm | - | 8 W/m² | - |
| 1787768414 | 10.56° C | 96% | 997.9 hPa | 0 mm | - | 24 W/m² | - |
| 1787768109 | 10° C | 98% | 997.7 hPa | 0 mm | - | 101 W/m² | - |
| 1787767804 | 10° C | 99% | 997.6 hPa | 0 mm | - | 30 W/m² | - |
| 1787767500 | 10.56° C | 98% | 997.8 hPa | 0 mm | - | 44 W/m² | - |
| 1787767198 | 10.56° C | 98% | 997.8 hPa | 0 mm | - | 72 W/m² | - |
| 1787766897 | 10.56° C | 98% | 997.8 hPa | 0 mm | - | 43 W/m² | - |
| 1787766592 | 10.56° C | 99% | 997.4 hPa | 0 mm | - | 49 W/m² | - |
| 1787766290 | 10.56° C | 99% | 997.8 hPa | 0 mm | - | 111 W/m² | - |
| 1787765986 | 10° C | 99% | 997.9 hPa | 0 mm | - | 315 W/m² | - |
| 1787765682 | 10° C | 99% | 998.1 hPa | 0 mm | - | 82 W/m² | - |
| 1787765377 | 10° C | 99% | 997.9 hPa | 0 mm | - | 40 W/m² | - |
| 1787765071 | 10° C | 99% | 997.9 hPa | 1.27 mm | - | 101 W/m² | - |
| 1787764766 | 10° C | 99% | 997.9 hPa | 1.27 mm | - | 151 W/m² | - |
| 1787764462 | 10° C | 99% | 998.1 hPa | 0 mm | - | 120 W/m² | - |
* Rain latest hour (hover to see other rain measurements)
** Current wind speed in m/s (hover to see current wind gust speed)